Location: Klein M�hlingen
(51.9472°N, 11.7453°E)
Time: 01:27:40
(UTC+00:00)

Cosmos 1697 Rocket - Pass Details

Date: 09 April 2020
Orbit: 831 x 845 km, 71.0° (Epoch: 30 May)

Event Time Altitude Azimuth Distance (km) Brightness Sun altitude
Rises 21:05:38 0° 327° (NNW) 3,413 7.3 -24.0°
Reaches altitude 10° 21:08:08 10° 323° (NW) 2,475 6.2 -24.2°
Maximum altitude 21:13:38 53° 248° (WSW) 1,029 3.1 -24.7°
Enters shadow 21:14:48 45° 208° (SSW) 1,135 3.1 -24.8°
